Donnes mto: Actuelle dimanche, 05/12/2021 19:10
Date Horaire Temp. E. Hum. E. P.atmo. Pluie Vent Direction Direction Ensoleilleme Ev.Tr. Solaire P. de rose Temp au vent Rafales
05/12/2021 19:10 6,4 C 84 % 1014,5 hPa 0,0 mm 1,9 km/h (1 Bft) O-NO 291 0 min 0,000 mm 0 W/m 3,9 C 6,4 C 17,7 km/h (3 Bft)
05/12/2021 19:05 6,3 C 84 % 1014,4 hPa 0,0 mm 1,0 km/h (0 Bft) O-NO 297 0 min 0,000 mm 0 W/m 3,8 C 6,3 C 14,5 km/h (3 Bft)
05/12/2021 19:00 6,2 C 84 % 1014,3 hPa 0,0 mm 0,0 km/h (0 Bft) O 273 0 min 0,000 mm 0 W/m 3,7 C 6,2 C 1,6 km/h (1 Bft)
05/12/2021 18:55 6,3 C 84 % 1014,2 hPa 0,0 mm 0,4 km/h (0 Bft) O-NO 288 0 min 0,000 mm 0 W/m 3,8 C 6,3 C 9,7 km/h (2 Bft)
05/12/2021 18:50 6,3 C 84 % 1014,3 hPa 0,0 mm 0,2 km/h (0 Bft) NO 306 0 min 0,000 mm 0 W/m 3,8 C 6,3 C 9,7 km/h (2 Bft)
05/12/2021 18:45 6,3 C 84 % 1014,2 hPa 0,0 mm 0,5 km/h (0 Bft) O-NO 302 0 min 0,000 mm 0 W/m 3,8 C 6,3 C 6,4 km/h (2 Bft)
05/12/2021 18:40 6,2 C 84 % 1014,2 hPa 0,0 mm 1,0 km/h (0 Bft) O-NO 287 0 min 0,000 mm 0 W/m 3,7 C 6,2 C 12,9 km/h (3 Bft)
05/12/2021 18:35 6,2 C 84 % 1014,2 hPa 0,0 mm 0,5 km/h (0 Bft) O-NO 283 0 min 0,000 mm 0 W/m 3,7 C 6,2 C 9,7 km/h (2 Bft)
05/12/2021 18:30 6,2 C 83 % 1014,0 hPa 0,0 mm 1,6 km/h (1 Bft) O-NO 297 0 min 0,000 mm 0 W/m 3,5 C 6,2 C 11,3 km/h (2 Bft)
05/12/2021 18:25 6,4 C 83 % 1014,0 hPa 0,0 mm 0,3 km/h (0 Bft) O-SO 249 0 min 0,000 mm 0 W/m 3,7 C 6,4 C 9,7 km/h (2 Bft)
05/12/2021 18:20 6,4 C 83 % 1014,0 hPa 0,0 mm 1,4 km/h (1 Bft) O-NO 293 0 min 0,000 mm 0 W/m 3,7 C 6,4 C 12,9 km/h (3 Bft)
05/12/2021 18:15 6,4 C 83 % 1013,9 hPa 0,0 mm 1,5 km/h (1 Bft) O 276 0 min 0,000 mm 0 W/m 3,7 C 6,4 C 14,5 km/h (3 Bft)
05/12/2021 18:10 6,3 C 83 % 1013,9 hPa 0,0 mm 0,0 km/h (0 Bft) O 278 0 min 0,000 mm 0 W/m 3,6 C 6,3 C 0,0 km/h (0 Bft)
05/12/2021 18:05 6,3 C 83 % 1013,8 hPa 0,0 mm 1,1 km/h (1 Bft) O-NO 286 0 min 0,000 mm 0 W/m 3,6 C 6,3 C 19,3 km/h (3 Bft)
05/12/2021 18:00 6,2 C 83 % 1013,8 hPa 0,0 mm 0,5 km/h (0 Bft) O-NO 288 0 min 0,000 mm 0 W/m 3,5 C 6,2 C 6,4 km/h (2 Bft)
05/12/2021 17:55 6,2 C 83 % 1013,6 hPa 0,0 mm 1,2 km/h (1 Bft) O 273 0 min 0,000 mm 0 W/m 3,5 C 6,2 C 12,9 km/h (3 Bft)
05/12/2021 17:50 6,2 C 83 % 1013,5 hPa 0,0 mm 0,9 km/h (0 Bft) O-NO 283 0 min 0,000 mm 0 W/m 3,5 C 6,2 C 11,3 km/h (2 Bft)
05/12/2021 17:45 6,3 C 83 % 1013,6 hPa 0,0 mm 0,6 km/h (0 Bft) O 269 0 min 0,000 mm 0 W/m 3,6 C 6,3 C 8,0 km/h (2 Bft)
05/12/2021 17:40 6,4 C 83 % 1013,6 hPa 0,0 mm 0,0 km/h (0 Bft) O-NO 293 0 min 0,000 mm 0 W/m 3,7 C 6,4 C 1,6 km/h (1 Bft)
05/12/2021 17:35 6,4 C 82 % 1013,6 hPa 0,0 mm 0,8 km/h (0 Bft) NO 323 0 min 0,000 mm 0 W/m 3,6 C 6,4 C 11,3 km/h (2 Bft)
05/12/2021 17:30 6,4 C 83 % 1013,5 hPa 0,0 mm 0,4 km/h (0 Bft) O-NO 285 0 min 0,000 mm 0 W/m 3,7 C 6,4 C 9,7 km/h (2 Bft)
05/12/2021 17:25 6,3 C 83 % 1013,5 hPa 0,0 mm 0,1 km/h (0 Bft) NO 311 0 min 0,000 mm 0 W/m 3,6 C 6,3 C 6,4 km/h (2 Bft)
05/12/2021 17:20 6,3 C 84 % 1013,4 hPa 0,0 mm 0,0 km/h (0 Bft) O 281 0 min 0,000 mm 0 W/m 3,8 C 6,3 C 0,0 km/h (0 Bft)
05/12/2021 17:15 6,4 C 83 % 1013,5 hPa 0,0 mm 0,1 km/h (0 Bft) O 272 0 min 0,000 mm 0 W/m 3,7 C 6,4 C 3,2 km/h (1 Bft)
05/12/2021 17:10 6,4 C 83 % 1013,5 hPa 0,0 mm 0,1 km/h (0 Bft) O-NO 284 0 min 0,000 mm 5 W/m 3,7 C 6,4 C 6,4 km/h (2 Bft)
05/12/2021 17:05 6,5 C 82 % 1013,5 hPa 0,0 mm 0,1 km/h (0 Bft) O-NO 303 0 min 0,000 mm 7 W/m 3,7 C 6,5 C 6,4 km/h (2 Bft)
05/12/2021 17:00 6,8 C 81 % 1013,5 hPa 0,0 mm 0,0 km/h (0 Bft) O 274 0 min 0,000 mm 7 W/m 3,8 C 6,8 C 0,0 km/h (0 Bft)
05/12/2021 16:55 7,2 C 80 % 1013,4 hPa 0,0 mm 0,0 km/h (0 Bft) O 275 0 min 0,000 mm 12 W/m 4,0 C 7,2 C 0,0 km/h (0 Bft)
05/12/2021 16:50 7,4 C 79 % 1013,3 hPa 0,0 mm 0,0 km/h (0 Bft) O 272 0 min 0,000 mm 18 W/m 4,0 C 7,4 C 0,0 km/h (0 Bft)
05/12/2021 16:45 7,4 C 79 % 1013,3 hPa 0,0 mm 0,0 km/h (0 Bft) O 278 0 min 0,000 mm 21 W/m 4,0 C 7,4 C 1,6 km/h (1 Bft)
05/12/2021 16:40 7,4 C 79 % 1013,2 hPa 0,0 mm 0,0 km/h (0 Bft) O-NO 293 0 min 0,000 mm 28 W/m 4,0 C 7,4 C 1,6 km/h (1 Bft)
05/12/2021 16:35 7,4 C 79 % 1013,2 hPa 0,0 mm 0,0 km/h (0 Bft) O-SO 239 0 min 0,000 mm 42 W/m 4,0 C 7,4 C 0,0 km/h (0 Bft)
05/12/2021 16:30 7,4 C 78 % 1013,3 hPa 0,0 mm 0,0 km/h (0 Bft) O 280 0 min 0,000 mm 28 W/m 3,8 C 7,4 C 3,2 km/h (1 Bft)
05/12/2021 16:25 7,3 C 79 % 1013,1 hPa 0,0 mm 0,0 km/h (0 Bft) N-NO 345 0 min 0,000 mm 21 W/m 3,9 C 7,3 C 1,6 km/h (1 Bft)
05/12/2021 16:20 7,4 C 78 % 1013,1 hPa 0,0 mm 0,0 km/h (0 Bft) O-NO 285 0 min 0,000 mm 19 W/m 3,8 C 7,4 C 1,6 km/h (1 Bft)
05/12/2021 16:15 7,4 C 78 % 1013,1 hPa 0,0 mm 0,8 km/h (0 Bft) O-NO 283 0 min 0,000 mm 18 W/m 3,8 C 7,4 C 14,5 km/h (3 Bft)
05/12/2021 16:10 7,6 C 77 % 1013,0 hPa 0,0 mm 0,7 km/h (0 Bft) O 266 0 min 0,000 mm 21 W/m 3,8 C 7,6 C 12,9 km/h (3 Bft)
05/12/2021 16:05 7,6 C 77 % 1012,9 hPa 0,0 mm 0,0 km/h (0 Bft) O-NO 303 0 min 0,000 mm 18 W/m 3,8 C 7,6 C 0,0 km/h (0 Bft)
05/12/2021 16:00 7,8 C 77 % 1012,9 hPa 0,0 mm 0,0 km/h (0 Bft) O 276 0 min 0,025 mm 23 W/m 4,0 C 7,8 C 1,6 km/h (1 Bft)
05/12/2021 15:55 7,9 C 76 % 1012,8 hPa 0,0 mm 0,8 km/h (0 Bft) O 270 0 min 0,000 mm 39 W/m 3,9 C 7,9 C 11,3 km/h (2 Bft)
05/12/2021 15:50 8,0 C 75 % 1012,7 hPa 0,0 mm 0,4 km/h (0 Bft) O-SO 244 0 min 0,000 mm 19 W/m 3,8 C 8,0 C 14,5 km/h (3 Bft)
05/12/2021 15:45 8,2 C 75 % 1012,7 hPa 0,0 mm 0,2 km/h (0 Bft) NO 312 0 min 0,000 mm 21 W/m 4,0 C 8,2 C 6,4 km/h (2 Bft)
05/12/2021 15:40 8,3 C 75 % 1012,6 hPa 0,0 mm 0,0 km/h (0 Bft) O-SO 237 0 min 0,000 mm 25 W/m 4,1 C 8,3 C 1,6 km/h (1 Bft)
05/12/2021 15:35 8,4 C 75 % 1012,6 hPa 0,0 mm 0,0 km/h (0 Bft) N-NO 331 0 min 0,000 mm 42 W/m 4,2 C 8,4 C 0,0 km/h (0 Bft)
05/12/2021 15:30 8,7 C 75 % 1012,5 hPa 0,0 mm 0,1 km/h (0 Bft) O-NO 283 0 min 0,000 mm 32 W/m 4,5 C 8,7 C 3,2 km/h (1 Bft)
05/12/2021 15:25 8,8 C 76 % 1012,6 hPa 0,0 mm 0,6 km/h (0 Bft) NO 318 0 min 0,000 mm 35 W/m 4,8 C 8,8 C 12,9 km/h (3 Bft)
05/12/2021 15:20 8,6 C 76 % 1012,7 hPa 0,0 mm 1,4 km/h (1 Bft) NO 314 5 min 0,000 mm 188 W/m 4,6 C 8,6 C 17,7 km/h (3 Bft)
05/12/2021 15:15 8,7 C 75 % 1012,6 hPa 0,0 mm 0,2 km/h (0 Bft) O-NO 298 0 min 0,000 mm 30 W/m 4,5 C 8,7 C 6,4 km/h (2 Bft)
05/12/2021 15:10 8,8 C 76 % 1012,6 hPa 0,0 mm 0,0 km/h (0 Bft) N-NO 339 0 min 0,000 mm 44 W/m 4,8 C 8,8 C 0,0 km/h (0 Bft)
05/12/2021 15:05 8,8 C 76 % 1012,7 hPa 0,0 mm 0,1 km/h (0 Bft) O-NO 286 0 min 0,000 mm 132 W/m 4,8 C 8,8 C 3,2 km/h (1 Bft)
05/12/2021 15:00 8,8 C 76 % 1012,7 hPa 0,0 mm 0,1 km/h (0 Bft) O 280 0 min 0,076 mm 118 W/m 4,8 C 8,8 C 3,2 km/h (1 Bft)
05/12/2021 14:55 8,9 C 78 % 1012,7 hPa 0,0 mm 0,4 km/h (0 Bft) O-NO 299 0 min 0,000 mm 88 W/m 5,3 C 8,9 C 16,1 km/h (3 Bft)
05/12/2021 14:50 8,9 C 77 % 1012,7 hPa 0,0 mm 0,8 km/h (0 Bft) NO 304 5 min 0,000 mm 169 W/m 5,1 C 8,9 C 11,3 km/h (2 Bft)
05/12/2021 14:45 9,0 C 77 % 1012,8 hPa 0,0 mm 0,8 km/h (0 Bft) N 4 0 min 0,000 mm 144 W/m 5,2 C 9,0 C 16,1 km/h (3 Bft)
05/12/2021 14:40 8,9 C 80 % 1012,9 hPa 0,0 mm 0,3 km/h (0 Bft) O-SO 253 5 min 0,000 mm 353 W/m 5,6 C 8,9 C 8,0 km/h (2 Bft)
05/12/2021 14:35 8,8 C 79 % 1012,9 hPa 0,0 mm 0,8 km/h (0 Bft) NE 44 0 min 0,000 mm 137 W/m 5,4 C 8,8 C 14,5 km/h (3 Bft)
05/12/2021 14:30 8,8 C 80 % 1013,0 hPa 0,0 mm 0,4 km/h (0 Bft) NO 313 0 min 0,000 mm 165 W/m 5,5 C 8,8 C 11,3 km/h (2 Bft)
05/12/2021 14:25 8,8 C 80 % 1013,0 hPa 0,0 mm 1,2 km/h (1 Bft) O-NO 289 0 min 0,000 mm 118 W/m 5,5 C 8,8 C 16,1 km/h (3 Bft)
05/12/2021 14:20 8,4 C 80 % 1013,0 hPa 0,0 mm 1,8 km/h (1 Bft) SO 230 5 min 0,000 mm 192 W/m 5,2 C 8,4 C 16,1 km/h (3 Bft)
05/12/2021 14:15 8,3 C 79 % 1013,1 hPa 0,0 mm 0,4 km/h (0 Bft) O-NO 284 0 min 0,000 mm 179 W/m 4,9 C 8,3 C 11,3 km/h (2 Bft)
05/12/2021 14:10 8,3 C 79 % 1013,0 hPa 0,0 mm 2,2 km/h (1 Bft) N-NO 327 0 min 0,000 mm 123 W/m 4,9 C 8,3 C 19,3 km/h (3 Bft)
05/12/2021 14:05 8,4 C 80 % 1013,1 hPa 0,0 mm 1,8 km/h (1 Bft) O 268 0 min 0,000 mm 176 W/m 5,2 C 8,4 C 12,9 km/h (3 Bft)
05/12/2021 14:00 8,4 C 80 % 1013,0 hPa 0,0 mm 1,1 km/h (1 Bft) SO 229 0 min 0,102 mm 192 W/m 5,2 C 8,4 C 17,7 km/h (3 Bft)
05/12/2021 13:55 8,4 C 80 % 1012,9 hPa 0,0 mm 0,4 km/h (0 Bft) O-NO 282 5 min 0,000 mm 230 W/m 5,2 C 8,4 C 12,9 km/h (3 Bft)
05/12/2021 13:50 8,7 C 80 % 1013,0 hPa 0,0 mm 1,3 km/h (1 Bft) SO 220 0 min 0,000 mm 146 W/m 5,4 C 8,7 C 16,1 km/h (3 Bft)
05/12/2021 13:45 8,8 C 79 % 1013,0 hPa 0,0 mm 1,3 km/h (1 Bft) NO 304 5 min 0,000 mm 399 W/m 5,4 C 8,8 C 14,5 km/h (3 Bft)
05/12/2021 13:40 8,6 C 81 % 1013,0 hPa 0,0 mm 0,0 km/h (0 Bft) O-NO 283 0 min 0,000 mm 179 W/m 5,5 C 8,6 C 1,6 km/h (1 Bft)
05/12/2021 13:35 8,3 C 80 % 1013,0 hPa 0,0 mm 2,9 km/h (1 Bft) O-NO 282 0 min 0,000 mm 149 W/m 5,1 C 8,3 C 19,3 km/h (3 Bft)
05/12/2021 13:30 8,5 C 82 % 1013,0 hPa 0,0 mm 1,0 km/h (0 Bft) O-NO 296 5 min 0,000 mm 250 W/m 5,6 C 8,5 C 12,9 km/h (3 Bft)
05/12/2021 13:25 8,2 C 82 % 1012,9 hPa 0,0 mm 0,9 km/h (0 Bft) O 272 0 min 0,000 mm 121 W/m 5,3 C 8,2 C 9,7 km/h (2 Bft)
05/12/2021 13:20 8,0 C 82 % 1013,0 hPa 0,0 mm 3,1 km/h (1 Bft) O-NO 282 0 min 0,000 mm 118 W/m 5,1 C 8,0 C 12,9 km/h (3 Bft)
05/12/2021 13:15 7,9 C 82 % 1013,0 hPa 0,0 mm 2,7 km/h (1 Bft) NO 312 5 min 0,000 mm 330 W/m 5,0 C 7,9 C 12,9 km/h (3 Bft)
05/12/2021 13:10 7,9 C 82 % 1013,0 hPa 0,0 mm 1,2 km/h (1 Bft) O-SO 258 5 min 0,000 mm 330 W/m 5,0 C 7,9 C 11,3 km/h (2 Bft)
05/12/2021 13:05 8,0 C 82 % 1013,0 hPa 0,0 mm 1,1 km/h (1 Bft) O 267 5 min 0,000 mm 218 W/m 5,1 C 8,0 C 11,3 km/h (2 Bft)
05/12/2021 13:00 8,1 C 81 % 1013,0 hPa 0,0 mm 2,5 km/h (1 Bft) O 270 0 min 0,152 mm 120 W/m 5,0 C 8,1 C 12,9 km/h (3 Bft)
05/12/2021 12:55 8,3 C 81 % 1013,0 hPa 0,0 mm 1,8 km/h (1 Bft) NO 316 5 min 0,000 mm 299 W/m 5,2 C 8,3 C 16,1 km/h (3 Bft)
05/12/2021 12:50 8,3 C 81 % 1013,1 hPa 0,0 mm 0,9 km/h (0 Bft) O 276 5 min 0,000 mm 353 W/m 5,2 C 8,3 C 12,9 km/h (3 Bft)
05/12/2021 12:45 8,2 C 83 % 1013,1 hPa 0,0 mm 0,4 km/h (0 Bft) N-NE 27 5 min 0,000 mm 225 W/m 5,5 C 8,2 C 9,7 km/h (2 Bft)
05/12/2021 12:40 8,2 C 83 % 1013,2 hPa 0,0 mm 0,2 km/h (0 Bft) NO 317 5 min 0,000 mm 397 W/m 5,5 C 8,2 C 8,0 km/h (2 Bft)
05/12/2021 12:35 7,9 C 82 % 1013,2 hPa 0,0 mm 1,7 km/h (1 Bft) N-NO 328 5 min 0,000 mm 362 W/m 5,0 C 7,9 C 16,1 km/h (3 Bft)
05/12/2021 12:30 7,9 C 85 % 1013,1 hPa 0,0 mm 0,0 km/h (0 Bft) N-NO 330 5 min 0,000 mm 366 W/m 5,5 C 7,9 C 3,2 km/h (1 Bft)
05/12/2021 12:25 7,8 C 83 % 1013,2 hPa 0,0 mm 1,2 km/h (1 Bft) O-NO 286 5 min 0,000 mm 387 W/m 5,1 C 7,8 C 12,9 km/h (3 Bft)
05/12/2021 12:20 7,6 C 84 % 1013,2 hPa 0,0 mm 0,3 km/h (0 Bft) NO 326 5 min 0,000 mm 388 W/m 5,1 C 7,6 C 4,8 km/h (1 Bft)
05/12/2021 12:15 7,2 C 85 % 1013,2 hPa 0,0 mm 0,3 km/h (0 Bft) O-SO 249 5 min 0,000 mm 364 W/m 4,9 C 7,2 C 8,0 km/h (2 Bft)
05/12/2021 12:10 7,1 C 85 % 1013,3 hPa 0,0 mm 0,0 km/h (0 Bft) O 272 5 min 0,000 mm 313 W/m 4,8 C 7,1 C 0,0 km/h (0 Bft)
05/12/2021 12:05 6,9 C 86 % 1013,3 hPa 0,0 mm 0,1 km/h (0 Bft) NO 308 5 min 0,000 mm 359 W/m 4,7 C 6,9 C 3,2 km/h (1 Bft)
05/12/2021 12:00 7,0 C 85 % 1013,2 hPa 0,0 mm 1,4 km/h (1 Bft) O 264 5 min 0,127 mm 348 W/m 4,7 C 7,0 C 9,7 km/h (2 Bft)
05/12/2021 11:55 6,8 C 87 % 1013,2 hPa 0,0 mm 1,4 km/h (1 Bft) O-NO 299 5 min 0,000 mm 346 W/m 4,8 C 6,8 C 11,3 km/h (2 Bft)
05/12/2021 11:50 6,4 C 87 % 1013,2 hPa 0,0 mm 1,9 km/h (1 Bft) N-NO 329 5 min 0,000 mm 341 W/m 4,4 C 6,4 C 12,9 km/h (3 Bft)
05/12/2021 11:45 6,6 C 86 % 1013,2 hPa 0,0 mm 2,8 km/h (1 Bft) O-NO 295 5 min 0,000 mm 348 W/m 4,4 C 6,6 C 11,3 km/h (2 Bft)
05/12/2021 11:40 6,5 C 88 % 1013,3 hPa 0,0 mm 0,5 km/h (0 Bft) SO 214 5 min 0,000 mm 236 W/m 4,7 C 6,5 C 11,3 km/h (2 Bft)
05/12/2021 11:35 6,2 C 89 % 1013,2 hPa 0,0 mm 2,1 km/h (1 Bft) N-NO 328 5 min 0,000 mm 338 W/m 4,5 C 6,2 C 14,5 km/h (3 Bft)
05/12/2021 11:30 6,0 C 89 % 1013,3 hPa 0,0 mm 1,0 km/h (0 Bft) N-NO 340 5 min 0,000 mm 308 W/m 4,3 C 6,0 C 9,7 km/h (2 Bft)
05/12/2021 11:25 5,8 C 89 % 1013,2 hPa 0,0 mm 0,0 km/h (0 Bft) O 262 5 min 0,000 mm 197 W/m 4,1 C 5,8 C 0,0 km/h (0 Bft)
05/12/2021 11:20 5,8 C 90 % 1013,2 hPa 0,0 mm 1,1 km/h (1 Bft) O-SO 240 5 min 0,000 mm 239 W/m 4,3 C 5,8 C 9,7 km/h (2 Bft)
05/12/2021 11:15 5,6 C 90 % 1013,1 hPa 0,0 mm 0,0 km/h (0 Bft) NO 314 0 min 0,000 mm 83 W/m 4,1 C 5,6 C 0,0 km/h (0 Bft)
05/12/2021 11:10 5,8 C 91 % 1013,1 hPa 0,0 mm 1,6 km/h (1 Bft) N 4 5 min 0,000 mm 244 W/m 4,4 C 5,8 C 14,5 km/h (3 Bft)
05/12/2021 11:05 5,8 C 92 % 1013,0 hPa 0,0 mm 0,9 km/h (0 Bft) NO 323 5 min 0,000 mm 294 W/m 4,6 C 5,8 C 9,7 km/h (2 Bft)
05/12/2021 11:00 5,6 C 93 % 1012,9 hPa 0,0 mm 0,5 km/h (0 Bft) S-SO 196 5 min 0,077 mm 278 W/m 4,6 C 5,6 C 6,4 km/h (2 Bft)
05/12/2021 10:55 5,3 C 93 % 1012,9 hPa 0,0 mm 3,4 km/h (1 Bft) O-NO 291 5 min 0,000 mm 269 W/m 4,3 C 5,3 C 12,9 km/h (3 Bft)
05/12/2021 10:50 5,2 C 94 % 1012,9 hPa 0,0 mm 3,3 km/h (1 Bft) NO 322 5 min 0,000 mm 269 W/m 4,3 C 5,2 C 16,1 km/h (3 Bft)
05/12/2021 10:45 5,1 C 95 % 1012,8 hPa 0,0 mm 1,2 km/h (1 Bft) O-NO 291 5 min 0,000 mm 251 W/m 4,4 C 5,1 C 17,7 km/h (3 Bft)
05/12/2021 10:40 5,0 C 95 % 1012,8 hPa 0,0 mm 0,7 km/h (0 Bft) O-SO 239 5 min 0,000 mm 244 W/m 4,3 C 5,0 C 8,0 km/h (2 Bft)
05/12/2021 10:35 4,8 C 95 % 1012,6 hPa 0,0 mm 2,0 km/h (1 Bft) NO 322 5 min 0,000 mm 216 W/m 4,1 C 4,8 C 11,3 km/h (2 Bft)
05/12/2021 10:30 4,7 C 96 % 1012,5 hPa 0,0 mm 2,1 km/h (1 Bft) NO 323 5 min 0,000 mm 232 W/m 4,1 C 4,7 C 14,5 km/h (3 Bft)
05/12/2021 10:25 4,6 C 96 % 1012,4 hPa 0,0 mm 1,7 km/h (1 Bft) O-NO 299 5 min 0,000 mm 171 W/m 4,0 C 4,6 C 11,3 km/h (2 Bft)
05/12/2021 10:20 4,4 C 96 % 1012,3 hPa 0,0 mm 1,7 km/h (1 Bft) O 273 5 min 0,000 mm 188 W/m 3,8 C 4,4 C 9,7 km/h (2 Bft)
05/12/2021 10:15 4,3 C 96 % 1012,3 hPa 0,0 mm 1,6 km/h (1 Bft) O-NO 302 5 min 0,000 mm 151 W/m 3,7 C 4,3 C 11,3 km/h (2 Bft)
05/12/2021 10:10 4,2 C 96 % 1012,1 hPa 0,0 mm 1,1 km/h (1 Bft) O-SO 246 5 min 0,000 mm 162 W/m 3,6 C 4,2 C 11,3 km/h (2 Bft)
05/12/2021 10:05 3,9 C 96 % 1012,0 hPa 0,2 mm 0,4 km/h (0 Bft) O-SO 243 5 min 0,000 mm 155 W/m 3,3 C 3,9 C 8,0 km/h (2 Bft)
05/12/2021 10:00 3,6 C 96 % 1011,9 hPa 0,0 mm 0,1 km/h (0 Bft) O 274 5 min 0,025 mm 135 W/m 3,0 C 3,6 C 3,2 km/h (1 Bft)
05/12/2021 09:55 3,6 C 96 % 1011,9 hPa 0,0 mm 0,4 km/h (0 Bft) SO 226 0 min 0,000 mm 46 W/m 3,0 C 3,6 C 6,4 km/h (2 Bft)
05/12/2021 09:50 3,6 C 96 % 1011,8 hPa 0,0 mm 0,6 km/h (0 Bft) O-SO 245 0 min 0,000 mm 51 W/m 3,0 C 3,6 C 8,0 km/h (2 Bft)
05/12/2021 09:45 3,4 C 95 % 1011,7 hPa 0,0 mm 0,2 km/h (0 Bft) O-NO 283 0 min 0,000 mm 49 W/m 2,7 C 3,4 C 8,0 km/h (2 Bft)
05/12/2021 09:40 3,3 C 95 % 1011,5 hPa 0,0 mm 1,4 km/h (1 Bft) O-NO 291 0 min 0,000 mm 33 W/m 2,6 C 3,3 C 11,3 km/h (2 Bft)
05/12/2021 09:35 3,2 C 96 % 1011,5 hPa 0,0 mm 0,5 km/h (0 Bft) O 276 0 min 0,000 mm 33 W/m 2,6 C 3,2 C 8,0 km/h (2 Bft)
05/12/2021 09:30 3,2 C 96 % 1011,4 hPa 0,0 mm 0,2 km/h (0 Bft) O 280 0 min 0,000 mm 30 W/m 2,6 C 3,2 C 3,2 km/h (1 Bft)
05/12/2021 09:25 3,1 C 95 % 1011,2 hPa 0,0 mm 0,3 km/h (0 Bft) O-NO 295 0 min 0,000 mm 28 W/m 2,4 C 3,1 C 6,4 km/h (2 Bft)
05/12/2021 09:20 3,2 C 95 % 1011,2 hPa 0,0 mm 0,0 km/h (0 Bft) SO 235 0 min 0,000 mm 25 W/m 2,5 C 3,2 C 0,0 km/h (0 Bft)
05/12/2021 09:15 3,0 C 95 % 1011,2 hPa 0,0 mm 0,0 km/h (0 Bft) O 273 0 min 0,000 mm 51 W/m 2,3 C 3,0 C 0,0 km/h (0 Bft)
05/12/2021 09:10 2,9 C 95 % 1011,1 hPa 0,0 mm 0,0 km/h (0 Bft) O 272 0 min 0,000 mm 19 W/m 2,2 C 2,9 C 0,0 km/h (0 Bft)
05/12/2021 09:05 2,9 C 95 % 1011,0 hPa 0,0 mm 0,0 km/h (0 Bft) O 270 0 min 0,000 mm 14 W/m 2,2 C 2,9 C 0,0 km/h (0 Bft)
05/12/2021 09:00 2,9 C 95 % 1010,9 hPa 0,0 mm 0,3 km/h (0 Bft) O 276 0 min 0,000 mm 14 W/m 2,2 C 2,9 C 3,2 km/h (1 Bft)
05/12/2021 08:55 2,8 C 95 % 1010,9 hPa 0,0 mm 0,3 km/h (0 Bft) SO 229 0 min 0,000 mm 11 W/m 2,1 C 2,8 C 6,4 km/h (2 Bft)
05/12/2021 08:50 2,6 C 95 % 1010,9 hPa 0,0 mm 0,2 km/h (0 Bft) O-SO 245 0 min 0,000 mm 9 W/m 1,9 C 2,6 C 4,8 km/h (1 Bft)
05/12/2021 08:45 2,5 C 95 % 1010,8 hPa 0,0 mm 0,1 km/h (0 Bft) O-SO 257 0 min 0,000 mm 9 W/m 1,8 C 2,5 C 1,6 km/h (1 Bft)
05/12/2021 08:40 2,6 C 95 % 1010,8 hPa 0,0 mm 0,0 km/h (0 Bft) O 259 0 min 0,000 mm 7 W/m 1,9 C 2,6 C 0,0 km/h (0 Bft)
05/12/2021 08:35 2,6 C 95 % 1010,8 hPa 0,0 mm 0,0 km/h (0 Bft) O-SO 258 0 min 0,000 mm 7 W/m 1,9 C 2,6 C 0,0 km/h (0 Bft)
05/12/2021 08:30 2,6 C 95 % 1010,6 hPa 0,0 mm 0,0 km/h (0 Bft) O-SO 258 0 min 0,000 mm 5 W/m 1,9 C 2,6 C 0,0 km/h (0 Bft)
05/12/2021 08:25 2,7 C 95 % 1010,6 hPa 0,0 mm 0,0 km/h (0 Bft) O 259 0 min 0,000 mm 0 W/m 2,0 C 2,7 C 0,0 km/h (0 Bft)
05/12/2021 08:20 2,8 C 95 % 1010,6 hPa 0,0 mm 0,0 km/h (0 Bft) O-SO 258 0 min 0,000 mm 0 W/m 2,1 C 2,8 C 0,0 km/h (0 Bft)
05/12/2021 08:15 2,9 C 95 % 1010,4 hPa 0,0 mm 0,0 km/h (0 Bft) O 259 0 min 0,000 mm 0 W/m 2,2 C 2,9 C 0,0 km/h (0 Bft)
05/12/2021 08:10 3,1 C 95 % 1010,5 hPa 0,0 mm 0,0 km/h (0 Bft) O 262 0 min 0,000 mm 0 W/m 2,4 C 3,1 C 0,0 km/h (0 Bft)
05/12/2021 08:05 3,3 C 95 % 1010,5 hPa 0,0 mm 0,0 km/h (0 Bft) O 260 0 min 0,000 mm 0 W/m 2,6 C 3,3 C 0,0 km/h (0 Bft)
05/12/2021 08:00 3,4 C 95 % 1010,4 hPa 0,0 mm 0,4 km/h (0 Bft) O-SO 258 0 min 0,000 mm 0 W/m 2,7 C 3,4 C 8,0 km/h (2 Bft)
05/12/2021 07:55 3,3 C 95 % 1010,4 hPa 0,0 mm 0,0 km/h (0 Bft) O-NO 282 0 min 0,000 mm 0 W/m 2,6 C 3,3 C 0,0 km/h (0 Bft)
05/12/2021 07:50 3,4 C 95 % 1010,4 hPa 0,0 mm 0,0 km/h (0 Bft) O-NO 282 0 min 0,000 mm 0 W/m 2,7 C 3,4 C 0,0 km/h (0 Bft)
05/12/2021 07:45 3,7 C 95 % 1010,3 hPa 0,0 mm 0,0 km/h (0 Bft) O 281 0 min 0,000 mm 0 W/m 3,0 C 3,7 C 0,0 km/h (0 Bft)
05/12/2021 07:40 3,8 C 95 % 1010,4 hPa 0,0 mm 0,0 km/h (0 Bft) O-NO 282 0 min 0,000 mm 0 W/m 3,1 C 3,8 C 0,0 km/h (0 Bft)
05/12/2021 07:35 4,0 C 95 % 1010,3 hPa 0,0 mm 0,0 km/h (0 Bft) O 280 0 min 0,000 mm 0 W/m 3,3 C 4,0 C 0,0 km/h (0 Bft)
05/12/2021 07:30 4,0 C 95 % 1010,3 hPa 0,0 mm 0,0 km/h (0 Bft) O-NO 295 0 min 0,000 mm 0 W/m 3,3 C 4,0 C 0,0 km/h (0 Bft)
05/12/2021 07:25 4,1 C 95 % 1010,2 hPa 0,0 mm 0,0 km/h (0 Bft) O-NO 295 0 min 0,000 mm 0 W/m 3,4 C 4,1 C 0,0 km/h (0 Bft)
05/12/2021 07:20 4,2 C 95 % 1010,1 hPa 0,0 mm 0,0 km/h (0 Bft) O 279 0 min 0,000 mm 0 W/m 3,5 C 4,2 C 0,0 km/h (0 Bft)
05/12/2021 07:15 4,4 C 95 % 1010,0 hPa 0,0 mm 0,0 km/h (0 Bft) O 276 0 min 0,000 mm 0 W/m 3,7 C 4,4 C 0,0 km/h (0 Bft)
05/12/2021 07:10 4,5 C 95 % 1010,0 hPa 0,0 mm 0,0 km/h (0 Bft) O 276 0 min 0,000 mm 0 W/m 3,8 C 4,5 C 0,0 km/h (0 Bft)
05/12/2021 07:05 4,6 C 95 % 1009,9 hPa 0,0 mm 0,0 km/h (0 Bft) O 268 0 min 0,000 mm 0 W/m 3,9 C 4,6 C 0,0 km/h (0 Bft)
05/12/2021 07:00 4,7 C 95 % 1009,9 hPa 0,0 mm 0,7 km/h (0 Bft) O 273 0 min 0,000 mm 0 W/m 4,0 C 4,7 C 9,7 km/h (2 Bft)
05/12/2021 06:55 4,8 C 95 % 1009,9 hPa 0,2 mm 2,9 km/h (1 Bft) NO 319 0 min 0,000 mm 0 W/m 4,1 C 4,8 C 9,7 km/h (2 Bft)
05/12/2021 06:50 4,9 C 95 % 1009,9 hPa 0,0 mm 3,1 km/h (1 Bft) O-NO 301 0 min 0,000 mm 0 W/m 4,2 C 4,9 C 11,3 km/h (2 Bft)
05/12/2021 06:45 5,0 C 95 % 1009,9 hPa 0,2 mm 2,3 km/h (1 Bft) O-SO 258 0 min 0,000 mm 0 W/m 4,3 C 5,0 C 11,3 km/h (2 Bft)
05/12/2021 06:40 5,0 C 95 % 1009,9 hPa 0,2 mm 0,3 km/h (0 Bft) O 264 0 min 0,000 mm 0 W/m 4,3 C 5,0 C 6,4 km/h (2 Bft)
05/12/2021 06:35 5,0 C 95 % 1009,8 hPa 0,0 mm 1,2 km/h (1 Bft) O-NO 299 0 min 0,000 mm 0 W/m 4,3 C 5,0 C 9,7 km/h (2 Bft)
05/12/2021 06:30 5,1 C 95 % 1009,6 hPa 0,0 mm 1,8 km/h (1 Bft) O-NO 289 0 min 0,000 mm 0 W/m 4,4 C 5,1 C 12,9 km/h (3 Bft)
05/12/2021 06:25 5,2 C 95 % 1009,5 hPa 0,2 mm 3,6 km/h (1 Bft) O 268 0 min 0,000 mm 0 W/m 4,5 C 5,2 C 11,3 km/h (2 Bft)
05/12/2021 06:20 5,2 C 95 % 1009,6 hPa 0,4 mm 4,6 km/h (1 Bft) N 359 0 min 0,000 mm 0 W/m 4,5 C 4,5 C 20,9 km/h (4 Bft)
05/12/2021 06:15 5,2 C 95 % 1009,8 hPa 0,6 mm 0,0 km/h (0 Bft) O-SO 249 0 min 0,000 mm 0 W/m 4,5 C 5,2 C 0,0 km/h (0 Bft)
05/12/2021 06:10 5,2 C 95 % 1009,6 hPa 0,0 mm 0,0 km/h (0 Bft) O-SO 249 0 min 0,000 mm 0 W/m 4,5 C 5,2 C 0,0 km/h (0 Bft)
05/12/2021 06:05 5,2 C 95 % 1009,5 hPa 0,0 mm 0,0 km/h (0 Bft) O-SO 249 0 min 0,000 mm 0 W/m 4,5 C 5,2 C 0,0 km/h (0 Bft)
05/12/2021 06:00 5,2 C 95 % 1009,6 hPa 0,0 mm 0,0 km/h (0 Bft) O-SO 248 0 min 0,000 mm 0 W/m 4,5 C 5,2 C 0,0 km/h (0 Bft)
05/12/2021 05:55 5,2 C 95 % 1009,5 hPa 0,0 mm 0,0 km/h (0 Bft) O-SO 249 0 min 0,000 mm 0 W/m 4,5 C 5,2 C 0,0 km/h (0 Bft)
05/12/2021 05:50 5,1 C 95 % 1009,5 hPa 0,0 mm 0,9 km/h (0 Bft) SO 235 0 min 0,000 mm 0 W/m 4,4 C 5,1 C 8,0 km/h (2 Bft)
05/12/2021 05:45 5,0 C 95 % 1009,5 hPa 0,0 mm 0,0 km/h (0 Bft) S-SO 206 0 min 0,000 mm 0 W/m 4,3 C 5,0 C 0,0 km/h (0 Bft)
05/12/2021 05:40 5,1 C 95 % 1009,6 hPa 0,0 mm 0,0 km/h (0 Bft) S-SO 204 0 min 0,000 mm 0 W/m 4,4 C 5,1 C 0,0 km/h (0 Bft)
05/12/2021 05:35 5,1 C 95 % 1009,7 hPa 0,0 mm 0,0 km/h (0 Bft) O-SO 253 0 min 0,000 mm 0 W/m 4,4 C 5,1 C 0,0 km/h (0 Bft)
05/12/2021 05:30 5,1 C 95 % 1009,7 hPa 0,0 mm 0,0 km/h (0 Bft) O 265 0 min 0,000 mm 0 W/m 4,4 C 5,1 C 1,6 km/h (1 Bft)
05/12/2021 05:25 5,0 C 95 % 1009,8 hPa 0,0 mm 1,4 km/h (1 Bft) O 274 0 min 0,000 mm 0 W/m 4,3 C 5,0 C 9,7 km/h (2 Bft)
05/12/2021 05:20 5,0 C 95 % 1009,8 hPa 0,0 mm 0,3 km/h (0 Bft) O-NO 286 0 min 0,000 mm 0 W/m 4,3 C 5,0 C 6,4 km/h (2 Bft)
05/12/2021 05:15 4,9 C 95 % 1009,8 hPa 0,0 mm 0,0 km/h (0 Bft) O 265 0 min 0,000 mm 0 W/m 4,2 C 4,9 C 0,0 km/h (0 Bft)
05/12/2021 05:10 5,0 C 95 % 1009,8 hPa 0,2 mm 0,0 km/h (0 Bft) O 265 0 min 0,000 mm 0 W/m 4,3 C 5,0 C 0,0 km/h (0 Bft)
05/12/2021 05:05 4,9 C 95 % 1009,9 hPa 0,2 mm 0,0 km/h (0 Bft) O 265 0 min 0,000 mm 0 W/m 4,2 C 4,9 C 0,0 km/h (0 Bft)
05/12/2021 05:00 5,0 C 95 % 1009,8 hPa 0,6 mm 0,0 km/h (0 Bft) O 261 0 min 0,000 mm 0 W/m 4,3 C 5,0 C 0,0 km/h (0 Bft)
05/12/2021 04:55 4,9 C 95 % 1009,9 hPa 0,0 mm 0,0 km/h (0 Bft) O-SO 249 0 min 0,000 mm 0 W/m 4,2 C 4,9 C 0,0 km/h (0 Bft)
05/12/2021 04:50 4,9 C 95 % 1009,8 hPa 0,0 mm 1,1 km/h (1 Bft) O-SO 250 0 min 0,000 mm 0 W/m 4,2 C 4,9 C 8,0 km/h (2 Bft)
05/12/2021 04:45 4,9 C 95 % 1009,7 hPa 0,0 mm 3,7 km/h (1 Bft) O-SO 241 0 min 0,000 mm 0 W/m 4,2 C 4,9 C 9,7 km/h (2 Bft)
05/12/2021 04:40 4,8 C 95 % 1009,6 hPa 0,0 mm 4,4 km/h (1 Bft) SO 235 0 min 0,000 mm 0 W/m 4,1 C 4,8 C 12,9 km/h (3 Bft)
05/12/2021 04:35 4,8 C 95 % 1009,5 hPa 0,2 mm 4,8 km/h (1 Bft) SO 236 0 min 0,000 mm 0 W/m 4,1 C 3,9 C 12,9 km/h (3 Bft)
05/12/2021 04:30 4,9 C 95 % 1009,7 hPa 0,0 mm 5,4 km/h (1 Bft) SO 231 0 min 0,000 mm 0 W/m 4,2 C 3,8 C 12,9 km/h (3 Bft)
05/12/2021 04:25 5,0 C 95 % 1009,7 hPa 0,2 mm 5,5 km/h (1 Bft) SO 230 0 min 0,000 mm 0 W/m 4,3 C 3,9 C 14,5 km/h (3 Bft)
05/12/2021 04:20 5,0 C 95 % 1009,9 hPa 0,4 mm 4,8 km/h (1 Bft) O-SO 239 0 min 0,000 mm 0 W/m 4,3 C 4,2 C 16,1 km/h (3 Bft)
05/12/2021 04:15 4,9 C 95 % 1010,2 hPa 0,0 mm 4,3 km/h (1 Bft) O-SO 257 0 min 0,000 mm 0 W/m 4,2 C 4,9 C 12,9 km/h (3 Bft)
05/12/2021 04:10 4,9 C 95 % 1010,0 hPa 0,0 mm 3,6 km/h (1 Bft) SO 224 0 min 0,000 mm 0 W/m 4,2 C 4,9 C 11,3 km/h (2 Bft)
05/12/2021 04:05 4,9 C 95 % 1010,1 hPa 0,2 mm 0,0 km/h (0 Bft) SO 226 0 min 0,000 mm 0 W/m 4,2 C 4,9 C 0,0 km/h (0 Bft)
05/12/2021 04:00 4,8 C 95 % 1010,1 hPa 0,0 mm 1,4 km/h (1 Bft) S-SO 211 0 min 0,000 mm 0 W/m 4,1 C 4,8 C 9,7 km/h (2 Bft)
05/12/2021 03:55 4,9 C 95 % 1010,2 hPa 0,0 mm 4,1 km/h (1 Bft) SO 226 0 min 0,000 mm 0 W/m 4,2 C 4,9 C 9,7 km/h (2 Bft)
05/12/2021 03:50 4,8 C 95 % 1010,5 hPa 0,0 mm 4,4 km/h (1 Bft) S-SO 210 0 min 0,000 mm 0 W/m 4,1 C 4,8 C 9,7 km/h (2 Bft)
05/12/2021 03:45 4,8 C 95 % 1010,4 hPa 0,0 mm 2,4 km/h (1 Bft) SO 227 0 min 0,000 mm 0 W/m 4,1 C 4,8 C 8,0 km/h (2 Bft)
05/12/2021 03:40 4,8 C 95 % 1010,4 hPa 0,2 mm 0,5 km/h (0 Bft) SO 221 0 min 0,000 mm 0 W/m 4,1 C 4,8 C 8,0 km/h (2 Bft)
05/12/2021 03:35 4,8 C 94 % 1010,7 hPa 0,2 mm 0,0 km/h (0 Bft) O-SO 245 0 min 0,000 mm 0 W/m 3,9 C 4,8 C 0,0 km/h (0 Bft)
05/12/2021 03:30 4,8 C 94 % 1010,7 hPa 0,2 mm 0,1 km/h (0 Bft) O-SO 245 0 min 0,000 mm 0 W/m 3,9 C 4,8 C 1,6 km/h (1 Bft)
05/12/2021 03:25 4,8 C 94 % 1011,0 hPa 0,0 mm 1,2 km/h (1 Bft) SO 236 0 min 0,000 mm 0 W/m 3,9 C 4,8 C 6,4 km/h (2 Bft)
05/12/2021 03:20 4,8 C 94 % 1011,0 hPa 0,6 mm 6,1 km/h (2 Bft) O-NO 290 0 min 0,000 mm 0 W/m 3,9 C 3,5 C 16,1 km/h (3 Bft)
05/12/2021 03:15 4,7 C 94 % 1011,2 hPa 0,6 mm 1,2 km/h (1 Bft) O-NO 287 0 min 0,000 mm 0 W/m 3,8 C 4,7 C 11,3 km/h (2 Bft)
05/12/2021 03:10 4,7 C 95 % 1011,3 hPa 0,0 mm 0,6 km/h (0 Bft) O-SO 247 0 min 0,000 mm 0 W/m 4,0 C 4,7 C 8,0 km/h (2 Bft)
05/12/2021 03:05 4,5 C 94 % 1010,9 hPa 0,0 mm 1,6 km/h (1 Bft) O-SO 239 0 min 0,000 mm 0 W/m 3,6 C 4,5 C 9,7 km/h (2 Bft)
05/12/2021 03:00 4,3 C 94 % 1010,8 hPa 0,0 mm 1,4 km/h (1 Bft) SO 229 0 min 0,000 mm 0 W/m 3,4 C 4,3 C 8,0 km/h (2 Bft)
05/12/2021 02:55 4,3 C 94 % 1010,8 hPa 0,0 mm 1,2 km/h (1 Bft) SO 224 0 min 0,000 mm 0 W/m 3,4 C 4,3 C 8,0 km/h (2 Bft)
05/12/2021 02:50 4,4 C 94 % 1010,7 hPa 0,0 mm 0,1 km/h (0 Bft) S-SO 198 0 min 0,000 mm 0 W/m 3,5 C 4,4 C 3,2 km/h (1 Bft)
05/12/2021 02:45 4,5 C 94 % 1010,7 hPa 0,0 mm 1,6 km/h (1 Bft) SO 224 0 min 0,000 mm 0 W/m 3,6 C 4,5 C 9,7 km/h (2 Bft)
05/12/2021 02:40 4,5 C 94 % 1010,8 hPa 0,0 mm 1,5 km/h (1 Bft) S-SO 203 0 min 0,000 mm 0 W/m 3,6 C 4,5 C 9,7 km/h (2 Bft)
05/12/2021 02:35 4,6 C 94 % 1010,9 hPa 0,2 mm 0,0 km/h (0 Bft) S-SO 211 0 min 0,000 mm 0 W/m 3,7 C 4,6 C 0,0 km/h (0 Bft)
05/12/2021 02:30 4,7 C 94 % 1011,1 hPa 0,0 mm 0,0 km/h (0 Bft) S-SO 212 0 min 0,000 mm 0 W/m 3,8 C 4,7 C 0,0 km/h (0 Bft)
05/12/2021 02:25 4,8 C 94 % 1011,0 hPa 0,0 mm 0,0 km/h (0 Bft) S-SO 212 0 min 0,000 mm 0 W/m 3,9 C 4,8 C 0,0 km/h (0 Bft)
05/12/2021 02:20 4,8 C 94 % 1011,1 hPa 0,0 mm 0,0 km/h (0 Bft) S-SO 211 0 min 0,000 mm 0 W/m 3,9 C 4,8 C 0,0 km/h (0 Bft)
05/12/2021 02:15 5,0 C 94 % 1011,2 hPa 0,0 mm 0,0 km/h (0 Bft) SO 216 0 min 0,000 mm 0 W/m 4,1 C 5,0 C 0,0 km/h (0 Bft)
05/12/2021 02:10 5,1 C 94 % 1011,4 hPa 0,0 mm 0,0 km/h (0 Bft) SO 221 0 min 0,000 mm 0 W/m 4,2 C 5,1 C 0,0 km/h (0 Bft)
05/12/2021 02:05 5,2 C 94 % 1011,5 hPa 0,0 mm 1,0 km/h (0 Bft) SO 218 0 min 0,000 mm 0 W/m 4,3 C 5,2 C 8,0 km/h (2 Bft)
05/12/2021 02:00 5,2 C 94 % 1011,7 hPa 0,0 mm 1,5 km/h (1 Bft) SO 221 0 min 0,000 mm 0 W/m 4,3 C 5,2 C 11,3 km/h (2 Bft)
05/12/2021 01:55 5,3 C 94 % 1011,7 hPa 0,0 mm 3,3 km/h (1 Bft) O 262 0 min 0,000 mm 0 W/m 4,4 C 5,3 C 12,9 km/h (3 Bft)
05/12/2021 01:50 5,3 C 94 % 1011,9 hPa 0,0 mm 0,9 km/h (0 Bft) O-SO 241 0 min 0,000 mm 0 W/m 4,4 C 5,3 C 9,7 km/h (2 Bft)
05/12/2021 01:45 5,3 C 94 % 1011,7 hPa 0,2 mm 4,6 km/h (1 Bft) S-SO 202 0 min 0,000 mm 0 W/m 4,4 C 4,6 C 14,5 km/h (3 Bft)
05/12/2021 01:40 5,2 C 94 % 1012,2 hPa 0,0 mm 1,1 km/h (1 Bft) SO 226 0 min 0,000 mm 0 W/m 4,3 C 5,2 C 11,3 km/h (2 Bft)
05/12/2021 01:35 5,1 C 94 % 1012,3 hPa 0,2 mm 0,7 km/h (0 Bft) O-SO 240 0 min 0,000 mm 0 W/m 4,2 C 5,1 C 6,4 km/h (2 Bft)
05/12/2021 01:30 4,9 C 94 % 1012,2 hPa 0,0 mm 0,0 km/h (0 Bft) O-SO 239 0 min 0,000 mm 0 W/m 4,0 C 4,9 C 0,0 km/h (0 Bft)
05/12/2021 01:25 5,0 C 94 % 1012,2 hPa 0,0 mm 0,0 km/h (0 Bft) SO 234 0 min 0,000 mm 0 W/m 4,1 C 5,0 C 0,0 km/h (0 Bft)
05/12/2021 01:20 5,2 C 94 % 1012,3 hPa 0,0 mm 0,0 km/h (0 Bft) SO 235 0 min 0,000 mm 0 W/m 4,3 C 5,2 C 0,0 km/h (0 Bft)
05/12/2021 01:15 5,3 C 94 % 1012,4 hPa 0,0 mm 0,0 km/h (0 Bft) SO 233 0 min 0,000 mm 0 W/m 4,4 C 5,3 C 1,6 km/h (1 Bft)
05/12/2021 01:10 5,5 C 94 % 1012,5 hPa 0,0 mm 3,0 km/h (1 Bft) SO 233 0 min 0,000 mm 0 W/m 4,6 C 5,5 C 12,9 km/h (3 Bft)
05/12/2021 01:05 5,6 C 94 % 1012,5 hPa 0,0 mm 0,3 km/h (0 Bft) O-SO 243 0 min 0,000 mm 0 W/m 4,7 C 5,6 C 6,4 km/h (2 Bft)
05/12/2021 01:00 5,6 C 94 % 1012,5 hPa 0,6 mm 6,0 km/h (2 Bft) O-SO 243 0 min 0,000 mm 0 W/m 4,7 C 4,4 C 22,5 km/h (4 Bft)
05/12/2021 00:55 5,6 C 95 % 1013,1 hPa 0,2 mm 2,3 km/h (1 Bft) O 281 0 min 0,000 mm 0 W/m 4,9 C 5,6 C 14,5 km/h (3 Bft)
05/12/2021 00:50 5,5 C 95 % 1013,1 hPa 0,4 mm 1,9 km/h (1 Bft) O-SO 246 0 min 0,000 mm 0 W/m 4,8 C 5,5 C 11,3 km/h (2 Bft)
05/12/2021 00:45 5,5 C 94 % 1013,3 hPa 0,4 mm 3,4 km/h (1 Bft) SO 235 0 min 0,000 mm 0 W/m 4,6 C 5,5 C 12,9 km/h (3 Bft)
05/12/2021 00:40 5,5 C 94 % 1013,5 hPa 0,4 mm 0,5 km/h (0 Bft) NE 37 0 min 0,000 mm 0 W/m 4,6 C 5,5 C 8,0 km/h (2 Bft)
05/12/2021 00:35 5,4 C 94 % 1013,5 hPa 0,4 mm 0,0 km/h (0 Bft) SO 225 0 min 0,000 mm 0 W/m 4,5 C 5,4 C 0,0 km/h (0 Bft)
05/12/2021 00:30 5,5 C 94 % 1013,4 hPa 0,2 mm 0,1 km/h (0 Bft) SO 226 0 min 0,000 mm 0 W/m 4,6 C 5,5 C 1,6 km/h (1 Bft)
05/12/2021 00:25 5,4 C 94 % 1013,2 hPa 0,0 mm 0,0 km/h (0 Bft) SO 224 0 min 0,000 mm 0 W/m 4,5 C 5,4 C 0,0 km/h (0 Bft)
05/12/2021 00:20 5,4 C 94 % 1013,1 hPa 0,0 mm 1,5 km/h (1 Bft) SO 228 0 min 0,000 mm 0 W/m 4,5 C 5,4 C 8,0 km/h (2 Bft)
05/12/2021 00:15 5,4 C 94 % 1013,1 hPa 0,0 mm 0,5 km/h (0 Bft) S-SO 205 0 min 0,000 mm 0 W/m 4,5 C 5,4 C 6,4 km/h (2 Bft)
05/12/2021 00:10 5,4 C 94 % 1013,0 hPa 0,2 mm 0,0 km/h (0 Bft) S 175 0 min 0,000 mm 0 W/m 4,5 C 5,4 C 0,0 km/h (0 Bft)
05/12/2021 00:05 5,4 C 94 % 1013,1 hPa 0,0 mm 3,3 km/h (1 Bft) S-SE 168 0 min 0,000 mm 0 W/m 4,5 C 5,4 C 14,5 km/h (3 Bft)
05/12/2021 00:00 5,3 C 94 % 1013,0 hPa 0,0 mm 1,9 km/h (1 Bft) SE 145 0 min 0,000 mm 0 W/m 4,4 C 5,3 C 12,9 km/h (3 Bft)
_ Min-Heure 08:35 15:15 04:35 - 00:10 - - - - - 08:45 08:45 00:10
Minimum _ 2,5 C 75 % 1009,5 hPa - 0,0 km/h (0 Bft) - - - - - 1,8 C 2,5 C 0,0 km/h (0 Bft)
_ Max-Heure 14:45 09:30 19:10 01:00 03:20 - - 10:00 13:00 13:45 14:40 14:45 01:00
Maximum _ 9,1 C 96 % 1014,5 hPa 0,6 mm 6,1 km/h
O-NO (2 Bft)
- - 5 min 0,152 mm 399 W/m 5,6 C 9,0 C 22,5 km/h
O-NO (4 Bft)
Moyenne _ 5,8 C 89 % 1012,0 hPa #9,2 mm 1,0 km/h (0 Bft) O-NO - #3:45 h #0,584 mm 152 W/m 4,1 C 5,7 C 7,3 km/h (2 Bft)